• In Deutschland
  • Länderverzeichnis
  • Für 7 Tage
  • Wassertemperatur
  • Satellitenkarten
  • Wetterkarte
  • Widgets
  • user-avatar
    Anmelden

    Stündliche Wetter Kapan

    Heute, 24 August, Donnerstag

    Zeit Temperatur Niederschläge Wind Luftdruck Luftfeuchtigkeit
    00:00 +25°C° 0 mm 2 m/S 683 mmHg 55%
    01:00 +24°C° 0 mm 2 m/S 683 mmHg 56%
    02:00 +24°C° 0 mm 2 m/S 683 mmHg 58%
    03:00 +23°C° 0 mm 2 m/S 684 mmHg 59%
    04:00 +23°C° 0 mm 2 m/S 684 mmHg 59%
    05:00 +23°C° 0 mm 2 m/S 684 mmHg 60%
    06:00 +23°C° 0 mm 2 m/S 685 mmHg 60%
    07:00 +25°C° 0 mm 2 m/S 685 mmHg 52%
    08:00 +27°C° 0 mm 3 m/S 686 mmHg 44%
    09:00 +29°C° 0 mm 3 m/S 686 mmHg 36%
    10:00 +30°C° 0 mm 4 m/S 686 mmHg 33%
    11:00 +32°C° 0 mm 4 m/S 686 mmHg 30%
    12:00 +34°C° 0 mm 4 m/S 686 mmHg 28%
    13:00 +34°C° 0 mm 4 m/S 686 mmHg 28%
    14:00 +34°C° 0 mm 4 m/S 686 mmHg 28%
    15:00 +34°C° 0 mm 4 m/S 685 mmHg 27%
    16:00 +33°C° 0 mm 4 m/S 685 mmHg 29%
    17:00 +32°C° 0 mm 4 m/S 685 mmHg 31%
    18:00 +30°C° 0 mm 4 m/S 685 mmHg 33%
    19:00 +28°C° 0 mm 3 m/S 685 mmHg 37%
    20:00 +26°C° 0 mm 3 m/S 685 mmHg 40%
    21:00 +24°C° 0 mm 2 m/S 685 mmHg 43%
    22:00 +24°C° 0 mm 2 m/S 685 mmHg 44%
    23:00 +24°C° 0 mm 2 m/S 685 mmHg 44%

    Morgen, 25 August, Freitag

    Zeit Temperatur Niederschläge Wind Luftdruck Luftfeuchtigkeit
    00:00 +23°C° 0 mm 2 m/S 686 mmHg 44%
    01:00 +23°C° 0 mm 2 m/S 686 mmHg 44%
    02:00 +21°C° 0 mm 2 m/S 686 mmHg 44%
    03:00 +21°C° 0 mm 2 m/S 686 mmHg 44%
    04:00 +21°C° 0 mm 2 m/S 686 mmHg 43%
    05:00 +21°C° 0 mm 2 m/S 686 mmHg 43%
    06:00 +21°C° 0 mm 2 m/S 686 mmHg 42%
    07:00 +24°C° 0 mm 2 m/S 686 mmHg 36%
    08:00 +27°C° 0 mm 3 m/S 687 mmHg 30%
    09:00 +29°C° 0 mm 3 m/S 687 mmHg 24%
    10:00 +30°C° 0 mm 3 m/S 687 mmHg 22%
    11:00 +32°C° 0 mm 4 m/S 687 mmHg 21%
    12:00 +33°C° 0 mm 4 m/S 687 mmHg 19%
    13:00 +33°C° 0 mm 4 m/S 686 mmHg 19%
    14:00 +34°C° 0 mm 4 m/S 686 mmHg 18%
    15:00 +34°C° 0 mm 5 m/S 685 mmHg 18%
    16:00 +32°C° 0 mm 4 m/S 685 mmHg 20%
    17:00 +30°C° 0 mm 4 m/S 685 mmHg 22%
    18:00 +29°C° 0 mm 4 m/S 685 mmHg 23%
    19:00 +27°C° 0 mm 3 m/S 685 mmHg 27%
    20:00 +25°C° 0 mm 3 m/S 685 mmHg 31%
    21:00 +23°C° 0 mm 2 m/S 685 mmHg 35%
    22:00 +23°C° 0 mm 2 m/S 685 mmHg 37%
    23:00 +21°C° 0 mm 2 m/S 685 mmHg 40%

    übermorgen, 26 August, Samstag

    Zeit Temperatur Niederschläge Wind Luftdruck Luftfeuchtigkeit
    00:00 +21°C° 0 mm 2 m/S 685 mmHg 43%
    01:00 +21°C° 0 mm 2 m/S 685 mmHg 44%
    02:00 +20°C° 0 mm 2 m/S 685 mmHg 45%
    03:00 +20°C° 0 mm 2 m/S 685 mmHg 47%
    04:00 +20°C° 0 mm 2 m/S 686 mmHg 46%
    05:00 +20°C° 0 mm 2 m/S 686 mmHg 45%
    06:00 +20°C° 0 mm 2 m/S 686 mmHg 44%
    07:00 +22°C° 0 mm 3 m/S 686 mmHg 39%
    08:00 +25°C° 0 mm 3 m/S 687 mmHg 34%
    09:00 +27°C° 0 mm 3 m/S 687 mmHg 29%
    10:00 +28°C° 0 mm 4 m/S 687 mmHg 27%
    11:00 +30°C° 0 mm 4 m/S 686 mmHg 24%
    12:00 +32°C° 0 mm 4 m/S 686 mmHg 21%
    13:00 +32°C° 0 mm 4 m/S 686 mmHg 21%
    14:00 +32°C° 0 mm 4 m/S 685 mmHg 21%
    15:00 +33°C° 0 mm 5 m/S 685 mmHg 21%
    16:00 +30°C° 0 mm 4 m/S 685 mmHg 23%
    17:00 +29°C° 0 mm 4 m/S 685 mmHg 26%
    18:00 +28°C° 0 mm 4 m/S 684 mmHg 29%
    19:00 +26°C° 0 mm 3 m/S 685 mmHg 33%
    20:00 +24°C° 0 mm 3 m/S 685 mmHg 38%
    21:00 +23°C° 0 mm 2 m/S 685 mmHg 42%
    22:00 +21°C° 0 mm 2 m/S 685 mmHg 44%
    23:00 +21°C° 0 mm 2 m/S 685 mmHg 46%

    27 August, Sonntag

    Zeit Temperatur Niederschläge Wind Luftdruck Luftfeuchtigkeit
    00:00 +20°C° 0 mm 2 m/S 685 mmHg 48%
    01:00 +20°C° 0 mm 2 m/S 685 mmHg 49%
    02:00 +20°C° 0 mm 2 m/S 685 mmHg 50%
    03:00 +19°C° 0 mm 2 m/S 684 mmHg 52%
    04:00 +19°C° 0 mm 2 m/S 685 mmHg 50%
    05:00 +19°C° 0 mm 2 m/S 685 mmHg 49%
    06:00 +19°C° 0 mm 2 m/S 685 mmHg 48%
    07:00 +23°C° 0 mm 2 m/S 685 mmHg 42%
    08:00 +25°C° 0 mm 3 m/S 686 mmHg 36%
    09:00 +27°C° 0 mm 3 m/S 686 mmHg 30%
    10:00 +28°C° 0 mm 3 m/S 686 mmHg 28%
    11:00 +29°C° 0 mm 4 m/S 685 mmHg 27%
    12:00 +30°C° 0 mm 4 m/S 685 mmHg 25%
    13:00 +32°C° 0 mm 4 m/S 685 mmHg 25%
    14:00 +32°C° 0 mm 4 m/S 684 mmHg 25%
    15:00 +32°C° 0 mm 4 m/S 684 mmHg 25%
    16:00 +30°C° 0 mm 4 m/S 684 mmHg 28%
    17:00 +29°C° 0 mm 4 m/S 684 mmHg 31%
    18:00 +27°C° 0 mm 4 m/S 684 mmHg 34%
    19:00 +26°C° 0 mm 3 m/S 684 mmHg 39%
    20:00 +24°C° 0 mm 3 m/S 684 mmHg 44%
    21:00 +21°C° 0 mm 2 m/S 684 mmHg 49%
    22:00 +21°C° 0 mm 2 m/S 684 mmHg 51%
    23:00 +21°C° 0 mm 2 m/S 684 mmHg 52%

    28 August, Montag

    Zeit Temperatur Niederschläge Wind Luftdruck Luftfeuchtigkeit
    00:00 +20°C° 0 mm 2 m/S 684 mmHg 54%
    01:00 +20°C° 0 mm 2 m/S 684 mmHg 54%
    02:00 +20°C° 0 mm 2 m/S 684 mmHg 54%
    03:00 +19°C° 0 mm 2 m/S 684 mmHg 55%
    04:00 +19°C° 0 mm 2 m/S 684 mmHg 53%
    05:00 +19°C° 0 mm 2 m/S 684 mmHg 52%
    06:00 +20°C° 0 mm 2 m/S 685 mmHg 51%
    07:00 +23°C° 0 mm 2 m/S 685 mmHg 44%
    08:00 +25°C° 0 mm 2 m/S 685 mmHg 38%
    09:00 +27°C° 0 mm 3 m/S 686 mmHg 31%
    10:00 +28°C° 0 mm 3 m/S 685 mmHg 29%
    11:00 +30°C° 0 mm 3 m/S 685 mmHg 27%
    12:00 +31°C° 0 mm 3 m/S 685 mmHg 25%
    13:00 +32°C° 0 mm 4 m/S 684 mmHg 25%
    14:00 +33°C° 0 mm 4 m/S 684 mmHg 25%
    15:00 +33°C° 0 mm 4 m/S 683 mmHg 25%
    16:00 +32°C° 0 mm 4 m/S 683 mmHg 28%
    17:00 +29°C° 0 mm 3 m/S 683 mmHg 31%
    18:00 +28°C° 0 mm 3 m/S 683 mmHg 33%
    19:00 +27°C° 0 mm 3 m/S 683 mmHg 38%
    20:00 +25°C° 0 mm 2 m/S 683 mmHg 43%
    21:00 +23°C° 0 mm 2 m/S 683 mmHg 47%
    22:00 +23°C° 0 mm 2 m/S 683 mmHg 48%
    23:00 +21°C° 0 mm 2 m/S 683 mmHg 49%

    29 August, Dienstag

    Zeit Temperatur Niederschläge Wind Luftdruck Luftfeuchtigkeit
    00:00 +21°C° 0 mm 2 m/S 683 mmHg 50%
    01:00 +21°C° 0 mm 2 m/S 683 mmHg 51%
    02:00 +21°C° 0 mm 2 m/S 683 mmHg 51%
    03:00 +21°C° 0 mm 2 m/S 683 mmHg 52%
    04:00 +21°C° 0 mm 2 m/S 683 mmHg 51%
    05:00 +21°C° 0 mm 2 m/S 683 mmHg 51%
    06:00 +22°C° 0 mm 1 m/S 683 mmHg 50%
    07:00 +24°C° 0 mm 2 m/S 684 mmHg 44%
    08:00 +26°C° 0 mm 2 m/S 684 mmHg 38%
    09:00 +29°C° 0 mm 2 m/S 684 mmHg 32%
    10:00 +30°C° 0 mm 2 m/S 684 mmHg 29%
    11:00 +31°C° 0 mm 3 m/S 684 mmHg 27%
    12:00 +34°C° 0 mm 3 m/S 683 mmHg 24%
    13:00 +34°C° 0 mm 3 m/S 683 mmHg 24%
    14:00 +35°C° 0 mm 3 m/S 682 mmHg 23%
    15:00 +35°C° 0 mm 3 m/S 682 mmHg 23%
    16:00 +34°C° 0 mm 3 m/S 682 mmHg 26%
    17:00 +31°C° 0 mm 3 m/S 681 mmHg 29%
    18:00 +30°C° 0 mm 2 m/S 681 mmHg 32%
    19:00 +29°C° 0 mm 2 m/S 681 mmHg 38%
    20:00 +27°C° 0 mm 2 m/S 681 mmHg 43%
    21:00 +25°C° 0 mm 1 m/S 681 mmHg 48%
    22:00 +25°C° 0 mm 1 m/S 681 mmHg 48%
    23:00 +25°C° 0 mm 1 m/S 681 mmHg 48%
    Mehr zeigen